www.pogodaiklimat.ru

Погода и климат >> Архив погоды >> Россия >> Краснодарский край >> Горячий Ключ


ПОГОДА в Горячем Ключе

  • Прогноз погоды в Горячем Ключе
  • Монитор погоды в Горячем Ключе
  • Климат города

АРХИВ ПОГОДЫ в Горячем Ключе

Время (UTC), дата Ветер
(напр.,м/с)
 
Видим.   Явления Облачность Т
(С)
Тd
(С)
f
(%)
Тe
(С)
Тes
(С)
Комфортность P
(гПа)
Po
(гПа)
Тmin
(С)
Tmax
(С)
R
(мм)
R24
(мм)
S
(см)
03 16.09 Ю 1 10 км слабый ливневой дождь 10/10 600 м
[Cb cap]
+18.0 +16.9 93 +19 +19 1010.9 1003.6 +18.0 12
06 16.09 Ю 1 10 км слабый ливневой дождь {гроза} 10/10 600 м
[Cb cap]
+18.9 +16.9 88 +21 +21 комфорт 1010.9 1004.6 +17.9
09 16.09 ЮЗ 2 20 км гроза без осадков {ливн. осадки} 9/9 600 м
[Cb calv]
+22.4 +16.1 68 +27 +28 душно 1012.4 1005.2
12 16.09 ЮЗ 1 10 км слабый ливневой дождь {гроза} 10/10 600 м
[Cb cap]
+21.4 +17.3 77 +25 +25 комфорт 1013.4 1006.2
15 16.09 З 2 20 км 8/5 600 м
[Cb calv Ac cuf Ci ing]
+20.9 +16.1 74 +25 +25 комфорт 1014.3 1007.1 +23.3 10
18 16.09 З 1 20 км 9/6 600 м
[Cb calv Ac cuf Ci ing]
+18.8 +16.6 87 +21 +21 комфорт 1016.3 1009.0
21 16.09 З 1 20 км 9/9 600 м
[Cb calv]
+18.8 +16.3 85 +21 +21 комфорт 1016.8 1009.5
00 17.09 З 1 20 км 10/0 600 м
[]
+18.2 +16.5 90 +20 +20 1017.1 1009.8
03 17.09 СЗ 1 20 км 10/10 600 м
[Cb calv]
+17.9 +16.0 89 +19 +19 1017.6 1010.3 +17.7
06 17.09 СЗ 1 20 км {ливн. осадки} 8/8 600 м
[Cb calv]
+19.5 +15.5 78 +22 +23 комфорт 1019.2 1011.9
09 17.09 СЗ 2 20 км 5/5 600 м
[Cb calv]
+21.2 +11.9 55 +23 +29 комфорт 1019.6 1012.3
12 17.09 С 3 20 км 3/3 1000 м
[Cu hum]
+22.7 +8.4 40 +24 +28 комфорт 1019.5 1012.2
15 17.09 СЗ 2 20 км 3/0
[Ci fib]
+18.7 +6.5 45 +20 +20 1020.7 1013.3 +22.9 0.0
18 17.09 З 1 20 км 1/0 2000 м
[Ac trans]
+12.5 +9.7 83 +13 +13 1022.3 1014.8
21 17.09 штиль 0 20 км 3/0
[Ci fib]
+10.9 +9.7 92 +10 +10 1022.5 1014.9
00 18.09 З 1 20 км ясно +9.4 +8.6 95 +9 +9 1022.4 1014.8
03 18.09 З 1 20 км 1/0
[Ci fib]
+8.1 +7.5 96 +7 +7 1022.6 1015.0 +8.1
06 18.09 штиль 0 20 км 3/0
[Ci]
+15.4 +10.0 70 +15 +21 1023.8 1016.3 +8.1
09 18.09 СВ 1 20 км 1/0
[Ci]
+21.0 +3.0 30 +22 +35 комфорт 1022.9 1015.6
12 18.09 С 1 20 км ясно +22.5 +2.9 28 +22 +30 комфорт 1022.0 1014.7
15 18.09 штиль 0 20 км ясно +19.5 +5.0 38 +20 +20 1021.6 1014.3 +22.8
18 18.09 З 1 20 км ясно +11.9 +8.4 79 +12 +12 1023.1 1015.6
21 18.09 З 1 20 км ясно +9.9 +8.4 90 +9 +9 1023.2 1015.6
00 19.09 З 1 20 км ясно +8.6 +7.5 93 +8 +8 1023.5 1015.9
03 19.09 З 1 20 км ясно +7.7 +6.7 93 +7 +7 1023.9 1016.2 +7.7
06 19.09 З 1 20 км ясно +14.5 +9.0 70 +15 +20 1023.9 1016.5 +7.6
09 19.09 СЗ 1 20 км ясно +22.7 +4.0 29 +23 +35 комфорт 1023.2 1015.9
12 19.09 СВ 1 20 км ясно +25.1 +5.8 29 +25 +32 комфорт 1022.0 1014.8
15 19.09 штиль 0 20 км ясно +22.1 +9.7 45 +24 +24 комфорт 1021.6 1014.4 +25.6
18 19.09 З 1 20 км ясно +14.5 +11.1 80 +15 +15 1022.6 1015.1
21 19.09 З 1 20 км ясно +12.5 +10.8 89 +12 +12 1022.6 1015.1
00 20.09 штиль 0 20 км ясно +11.1 +9.9 92 +10 +10 1022.2 1014.6
03 20.09 З 1 20 км ясно +9.9 +8.9 93 +9 +9 1022.2 1014.7 +9.9
06 20.09 штиль 0 20 км ясно +16.6 +11.1 70 +17 +22 1022.1 1014.7 +9.8
09 20.09 В 1 20 км ясно +24.5 +11.2 43 +26 +38 жарко 1020.7 1013.5
12 20.09 С 1 20 км ясно +26.9 +9.0 32 +27 +35 жарко 1019.0 1011.8
15 20.09 штиль 0 20 км ясно +23.3 +11.3 47 +26 +26 жарко 1018.3 1011.1 +27.1
18 20.09 штиль 0 20 км ясно +15.8 +12.3 80 +16 +16 1018.7 1011.3
21 20.09 З 1 20 км ясно +13.7 +11.7 88 +14 +14 1018.6 1011.1
00 21.09 штиль 0 20 км ясно +11.6 +10.5 93 +11 +11 1018.7 1011.2
03 21.09 штиль 0 20 км ясно +10.6 +9.7 94 +10 +10 1018.9 1011.4 +10.6
06 21.09 штиль 0 20 км 1/0
[Ci fib]
+17.8 +11.9 68 +18 +23 1018.8 1011.4 +10.4
09 21.09 В 1 20 км 3/0
[Ci fib]
+25.0 +11.2 42 +26 +38 жарко 1018.1 1010.9
12 21.09 С 1 20 км 3/0
[Ci fib]
+28.7 +7.3 26 +28 +35 жарко 1016.8 1009.7
15 21.09 штиль 0 20 км 3/0
[Ci fib]
+24.3 +10.6 42 +25 +26 комфорт 1016.3 1009.1 +28.9
18 21.09 З 1 20 км 1/0
[Ci fib]
+16.6 +12.2 75 +17 +17 1017.0 1009.6
21 21.09 штиль 0 20 км ясно +14.6 +10.7 77 +14 +14 1017.1 1009.7
00 22.09 штиль 0 20 км ясно +11.7 +10.0 89 +11 +11 1017.5 1010.0
03 22.09 штиль 0 20 км ясно +11.2 +10.1 93 +10 +10 1017.7 1010.2 +11.0
06 22.09 штиль 0 20 км ясно +18.7 +12.4 67 +19 +25 1017.5 1010.2 +10.9
09 22.09 В 1 20 км ясно +25.6 +11.2 40 +27 +39 жарко 1016.8 1009.7
12 22.09 штиль 0 20 км ясно +29.3 +10.3 31 +29 +38 жарко 1015.3 1008.2
15 22.09 З 1 20 км 1/0
[Ci]
+24.2 +15.7 59 +27 +27 жарко 1014.9 1007.7 +29.3
18 22.09 З 1 20 км 3/0
[Ci]
+18.4 +15.5 83 +20 +20 1015.4 1008.1
21 22.09 З 2 20 км 1/0
[Ci]
+18.2 +15.2 83 +19 +19 1015.7 1008.4

 

Местоположение метеостанции Горячий Ключ (Краснодарский край, Россия): широта 44.63 долгота 39.10 высота над уровнем моря 62 м.

В архиве по умолчанию представлена погода в Горячем Ключе за последнюю неделю. Архивные данные за месяц целиком и за предыдущие месяцы, начиная с января 2011 года, Вы можете получить, выбрав интересующий диапазон дат из раскрывающегося списка и нажав кнопку "Ввод!".


*Определитесь, кто Вы:
робот инопланетянин человек

Внимание! Время в таблицах - всемирное. Для получения местного времени необходимо прибавить поправку, которая в Горячем Ключе равна 3 ч.

Смотрите также архив погоды в соседних городах и на ближайших метеорологических станциях:

Погода в Горном (Краснодарский край, Россия) (41 км)
Погода в Джубге (Краснодарский край, Россия) (45 км)
Погода в Краснодаре (Краснодарский край, Россия) (47 км)
Погода в Туапсе (Краснодарский край, Россия) (59 км)
Погода в Белореченске (Краснодарский край, Россия) (65 км)
Погода в Магри (Краснодарский край, Россия) (68 км)
Погода в Майкопе (Адыгея, Россия) (78 км)
Погода в Геленджике (Краснодарский край, Россия) (81 км)
Погода в Шунтуке (Адыгея, Россия) (83 км)
Погода в Усть-Лабинске (Краснодарский край, Россия) (83 км)

Пояснения к столбцам:

Ветер - указаны скорость ветра в м/с - средняя за 10 мин, порывы в срок и между сроками (в фигурных скобках) и направление, откуда дует ветер: С - северный, СВ - северо-восточный, В - восточный, ЮВ - юго-восточный, Ю - южный, ЮЗ - юго-западный, З - западный, СЗ - северо-западный.
Видимость - горизонтальная дальность видимости в метрах или километрах. При видимости от 1 до 10 км при отсутствии осадков обычно наблюдается дымка, при ухудшении видимости до 1 км и менее - туман. В сухую погоду видимость может ухудшаться дымом, пылью или мглою.
Явления - указаны атмосферные явления, наблюдавшиеся в срок или в последний час перед сроком; фигурными скобками обозначены явления, наблюдавшиеся между сроками (за 1-3 часа до срока); квадратными скобками обозначены град или гололедные отложения с указанием их диаметра в мм.
Облачность - указаны через наклонную черту общая и нижняя облачность в баллах и высота нижней границы облаков в метрах; квадратными скобками обозначены формы облаков: Ci - перистые, Cs - перисто-слоистые, Cc - перисто-кучевые, Ac - высококучевые, As - высокослоистые, Sc - слоисто-кучевые, Ns - слоисто-дождевые, Cu - кучевые, Cb - кучево-дождевые. Подробнее классификацию облаков см. в Атласе облаков (PDF).
T - Температура воздуха - температура, измеренная на высоте 2 м над землей.
Td - Температура точки росы - температура, при понижении до которой содержащийся в воздухе водяной пар достигнет насыщения.
f - Относительная влажность воздуха - влажноcть воздуха, измеренная на высоте 2 м над землей.
Te - Эффективная температура - температура, которую ощущает одетый по сезону человек в тени. Характеристика душности погоды. При расчете учитывается влияние влажности воздуха и скорости ветра на теплоощущения человека.
Tes - Эффективная температура на солнце - температура, которую ощущает человек, с поправкой на солнечный нагрев. Характеристика знойности погоды. Зависит от высоты солнца над горизонтом, облачности и скорости ветра. Ночью, в пасмурную погоду, а также при ветре 12 м/с и более поправка равна нулю.
P - Атмосферное давление - приведенное к уровню моря атмосферное давление.
Po - Атмосферное давление - измеренное на уровне метеостанции атмосферное давление.
Tmin - Минимальная температура - минимум температуры воздуха на высоте 2 м над землей.
Tmax - Максимальная температура - максимум температуры воздуха на высоте 2 м над землей.
R - Количество осадков - Количество выпавших осадков за период времени, мм. При наведении курсора мыши на число - период времени, за который выпало указанное количество осадков.
R24 - Количество осадков - Количество выпавших осадков за 24 часа, мм.
S - Снежный покров - Высота снежного покрова, см. При наведении курсора мыши на число - состояние снежного покрова и степень покрытия местности в баллах.